Regional Weather Roundup
Issued by NWS Memphis, TN

Home | Current Version | Previous Version | Text Only | Print | Product List | Glossary On
Versions: 1 2 3 4 5 6 7 8 9 10 11 12 13 14 15 16 17 18 19 20 21 22 23 24 25 26 27 28 29 30 31 32 33 34 35 36 37 38 39 40 41 42 43 44 45 46 47 48 49 50
000
ASUS44 KMEG 191800
RWRMEG
MEMPHIS CWA HOURLY WEATHER ROUNDUP
NATIONAL WEATHER SERVICE MEMPHIS TN
100 PM CDT SUN APR 19 2015

...WEST TENNESSEE...

CITY           SKY/WX    TMP DP  RH WIND       PRES   REMARKS
MEMPHIS INTL   CLOUDY    69  63  81 W14G22    29.67R
6HR MIN TEMP:  64; 6HR MAX TEMP:  71; 6HR PCP:  0.06;

NWS MEMPHIS      N/A     69 N/A N/A MISG        N/A
JACKSON        LGT RAIN  69  63  81 W13       29.62R
6HR MIN TEMP:  65; 6HR MAX TEMP:  74; 6HR PCP:  0.03;

LEXINGTON      CLOUDY    64  64 100 SW6       29.61S
SAVANNAH       CLOUDY    72  32  23 SW13      29.64F
DYERSBURG      CLOUDY    70  54  56 SW13      29.61R
6HR MIN TEMP:  64; 6HR MAX TEMP:  70;

UNION CITY     MOSUNNY   70  32  24 SW10      29.57F
PARIS          CLOUDY    64  64 100 SW9       29.59S


...EASTERN ARKANSAS...

CITY           SKY/WX    TMP DP  RH WIND       PRES   REMARKS
JONESBORO      CLOUDY    69  62  78 W18G28    29.63R THUNDER
6HR MIN TEMP:  63; 6HR MAX TEMP:  71;

WEST MEMPHIS   LGT RAIN  67  64  90 W8        29.67R
6HR MIN TEMP:  63; 6HR MAX TEMP:  70; 6HR PCP:  0.13;

BATESVILLE     CLOUDY    72  61  68 W10       29.67S
6HR MIN TEMP:  61; 6HR MAX TEMP:  72;

NEWPORT        LGT RAIN  72  64  78 SW8       29.67S
WALNUT RIDGE   CLOUDY    72  61  68 W12       29.62F
6HR MIN TEMP:  64; 6HR MAX TEMP:  72; 6HR PCP:  6.24;

BLYTHEVILLE    CLOUDY    72  65  78 SW10      29.61S
6HR MIN TEMP:  65; 6HR MAX TEMP:  72; 6HR PCP:  0.10;

SEARCY         CLOUDY    73  62  68 W8        29.70S
6HR MIN TEMP:  62; 6HR MAX TEMP:  73; 6HR PCP: TRACE;

STUTTGART      PTSUNNY   75  63  64 W20       29.70F
6HR MIN TEMP:  64; 6HR MAX TEMP:  75; 6HR PCP:  0.01;

PINE BLUFF     SUNNY     75  59  57 SW14G22   29.72F
6HR MIN TEMP:  63; 6HR MAX TEMP:  75; 6HR PCP: TRACE;

MONTICELLO     SUNNY     76  59  55 W9        29.73F
6HR MIN TEMP:  63; 6HR MAX TEMP:  76; 6HR PCP:  0.33;



...NORTH MISSISSIPPI...

CITY           SKY/WX    TMP DP  RH WIND       PRES   REMARKS
TUPELO         PTSUNNY   75  58  55 SW18G28   29.67S
6HR MIN TEMP:  64; 6HR MAX TEMP:  76; 6HR PCP:  0.16;

TUNICA         CLOUDY    70  63  78 W16G23    29.71S
GREENWOOD      PTSUNNY   72  62  71 SW10G17   29.73F
6HR MIN TEMP:  64; 6HR MAX TEMP:  72; 6HR PCP:  0.12;

COLUMBUS       PTSUNNY   77  63  60 SW17      29.68F
6HR MIN TEMP:  65; 6HR MAX TEMP:  78; 6HR PCP:  0.01;

STARKVILLE     MOCLDY    73  61  64 W13G22    29.70F
GOLDEN TRIANGL PTSUNNY   77  63  61 W14G21    29.69F


...SOUTHEAST MISSOURI...

CITY           SKY/WX    TMP DP  RH WIND       PRES   REMARKS
WEST PLAINS    CLOUDY    70  58  65 W8        29.64F
6HR MIN TEMP:  59; 6HR MAX TEMP:  70; 6HR PCP:  0.07;

POPLAR BLUFF   CLOUDY    71  61  70 W10G20    29.57S
6HR MIN TEMP:  64; 6HR MAX TEMP:  71;

CAPE GIRARDEAU PTSUNNY   71  66  84 SW8       29.53F
6HR MIN TEMP:  64; 6HR MAX TEMP:  72; 6HR PCP:  0.16;



...NORTHWEST ALABAMA...

CITY           SKY/WX    TMP DP  RH WIND       PRES   REMARKS
MUSCLE SHOALS  PTSUNNY   75  62  64 SW12      29.67F
6HR MIN TEMP:  66; 6HR MAX TEMP:  77; 6HR PCP:  0.01;



...MIDDLE TENNESSEE...

CITY           SKY/WX    TMP DP  RH WIND       PRES   REMARKS
NASHVILLE      CLOUDY    72  63  73 S12       29.62F
6HR MIN TEMP:  65; 6HR MAX TEMP:  75; 6HR PCP:  0.29;

CLARKSVILLE    PTSUNNY   74  65  73 S14       29.58S
6HR MIN TEMP:  64; 6HR MAX TEMP:  74; 6HR PCP:  0.55;

COLUMBIA       PTSUNNY   75  32  20 SW12      29.62F


...WESTERN KENTUCKY...

CITY           SKY/WX    TMP DP  RH WIND       PRES   REMARKS
PADUCAH        CLOUDY    70  66  87 SW6       29.54F
6HR MIN TEMP:  64; 6HR MAX TEMP:  70; 6HR PCP:  0.16;

FORT CAMPBELL  PTSUNNY   73  64  73 S10G21    29.57S
6HR MIN TEMP:  64; 6HR MAX TEMP:  74; 6HR PCP:  0.22;



...CENTRAL ARKANSAS...

CITY           SKY/WX    TMP DP  RH WIND       PRES   REMARKS
LITTLE ROCK    PTSUNNY   77  56  48 SW12G20   29.71S
6HR MIN TEMP:  64; 6HR MAX TEMP:  77; 6HR PCP: TRACE;



SKY/WX REPORTED AS FAIR MEANS FEW OR NO CLOUDS BELOW
12 THOUSAND FEET.



USA.gov is the U.S. government's official web portal to all federal, state and local government web resources and services.